This is the latest recevied weather packets stored in our database for station/object VE3VGJ. If no packets are shown the sender has not sent any weather packets the latest 10 day(s).
| Time | Temp. | Humidity | Pressure | Rain* | Wind** | Luminosity | Snow |
|---|---|---|---|---|---|---|---|
| 1778180934 | 8.89° C | 60% | 1010.9 hPa | 0 mm | - | 229 W/m² | - |
| 1778180633 | 8.89° C | 61% | 1010.8 hPa | 0 mm | - | 223 W/m² | - |
| 1778180331 | 8.89° C | 60% | 1010.9 hPa | 0 mm | - | 309 W/m² | - |
| 1778180028 | 8.89° C | 58% | 1010.7 hPa | 0 mm | - | 317 W/m² | - |
| 1778179725 | 8.89° C | 57% | 1011 hPa | 0 mm | - | 377 W/m² | - |
| 1778179423 | 8.89° C | 58% | 1010.8 hPa | 0 mm | - | 425 W/m² | - |
| 1778179119 | 8.89° C | 57% | 1011 hPa | 0 mm | - | 415 W/m² | - |
| 1778178817 | 8.89° C | 59% | 1011.2 hPa | 0 mm | - | 291 W/m² | - |
| 1778178514 | 8.89° C | 59% | 1011.1 hPa | 0 mm | - | 322 W/m² | - |
| 1778178210 | 8.33° C | 60% | 1011.1 hPa | 0 mm | - | 342 W/m² | - |
| 1778177906 | 7.78° C | 61% | 1011.2 hPa | 0 mm | - | 226 W/m² | - |
| 1778177602 | 7.78° C | 61% | 1011.1 hPa | 0 mm | - | 209 W/m² | - |
| 1778177299 | 7.78° C | 61% | 1011.1 hPa | 0 mm | - | 181 W/m² | - |
| 1778176996 | 7.78° C | 59% | 1011.2 hPa | 0 mm | - | 195 W/m² | - |
| 1778176691 | 8.33° C | 58% | 1011.1 hPa | 0 mm | - | 264 W/m² | - |
| 1778176389 | 8.33° C | 59% | 1011.1 hPa | 0 mm | - | 536 W/m² | - |
| 1778176086 | 7.78° C | 59% | 1010.9 hPa | 0 mm | - | 700 W/m² | - |
| 1778175784 | 7.78° C | 60% | 1011.2 hPa | 0 mm | - | 299 W/m² | - |
| 1778175481 | 7.78° C | 60% | 1011.4 hPa | 0 mm | - | 312 W/m² | - |
| 1778175178 | 7.78° C | 61% | 1011.4 hPa | 0 mm | - | 234 W/m² | - |
| 1778174874 | 7.78° C | 62% | 1011.4 hPa | 0 mm | - | 165 W/m² | - |
| 1778174571 | 7.78° C | 61% | 1011.3 hPa | 0 mm | - | 182 W/m² | - |
| 1778174267 | 8.33° C | 60% | 1011.4 hPa | 0 mm | - | 262 W/m² | - |
| 1778173964 | 8.89° C | 59% | 1011.3 hPa | 0 mm | - | 1116 W/m² | - |
| 1778173661 | 8.89° C | 60% | 1011.3 hPa | 0 mm | - | 698 W/m² | - |
* Rain latest hour (hover to see other rain measurements)
** Current wind speed in m/s (hover to see current wind gust speed)